WetterOnline ( https://www.wetteronline.de )

Wetter aktuell Lagord

Aktuelles Wetter: La Roche-sur-Yon (90m)

6-stündlich | Neueste Meldungen
Ortszeit Temperatur Wetter
Di, 16.08. 8:00 18.1° C leichter Regen
Di, 16.08. 2:00 18.4° C bedeckt
Mo, 15.08. 20:00 21.1° C bewölkt
Mo, 15.08. 14:00 21.4° C wolkig
Mo, 15.08. 8:00 18.3° C bedeckt
Mo, 15.08. 2:00 18.1° C bedeckt
So, 14.08. 20:00 19.5° C leichter Regen
So, 14.08. 14:00 21.0° C bedeckt
Ortszeit Temperatur Wetter
Di, 16.08. 9:00 18.2° C bewölkt
Di, 16.08. 8:00 18.1° C leichter Regen
Di, 16.08. 7:00 18.1° C leichter Regen
Di, 16.08. 6:00 18.1° C leichter Regen
Di, 16.08. 5:00 18.2° C bedeckt
Di, 16.08. 4:00 18.4° C bedeckt
Di, 16.08. 3:00 18.3° C bedeckt
Ortszeit Relative Feuchte Sichtweite
Di, 16.08. 8:00 98% 4.9 km
Di, 16.08. 2:00 94% 6 km
Mo, 15.08. 20:00 76% 19 km
Mo, 15.08. 14:00 71% 19 km
Mo, 15.08. 8:00 94% 8 km
Mo, 15.08. 2:00 95% 6 km
So, 14.08. 20:00 83% 16 km
So, 14.08. 14:00 73% 19 km
Ortszeit Relative Feuchte Sichtweite
Di, 16.08. 9:00 96% 7 km
Di, 16.08. 8:00 98% 4.9 km
Di, 16.08. 7:00 97% 5.0 km
Di, 16.08. 6:00 97% 5.0 km
Di, 16.08. 5:00 97% 3.8 km
Di, 16.08. 4:00 96% 4.7 km
Di, 16.08. 3:00 95% 5.0 km
Ortszeit Niederschlagsmenge Niederschlagsart
Di, 16.08. 8:00 2 l/m2 in 12 Std. -
Di, 16.08. 2:00 0.0 l/m2 in 6 Std. -
Mo, 15.08. 20:00 0.0 l/m2 in 12 Std. -
Mo, 15.08. 14:00 0.0 l/m2 in 6 Std. -
Mo, 15.08. 8:00 7 l/m2 in 12 Std. -
Mo, 15.08. 2:00 7 l/m2 in 6 Std. -
So, 14.08. 20:00 0.8 l/m2 in 12 Std. -
So, 14.08. 14:00 0.6 l/m2 in 6 Std. -
Ortszeit Niederschlagsmenge Niederschlagsart
Di, 16.08. 9:00 0.0 l/m2 in 1 Std. -
Di, 16.08. 8:00 keine Meldung -
Di, 16.08. 7:00 1.0 l/m2 in 1 Std. -
Di, 16.08. 6:00 0.0 l/m2 in 1 Std. -
Di, 16.08. 5:00 keine Meldung -
Di, 16.08. 4:00 0.0 l/m2 in 1 Std. -
Di, 16.08. 3:00 0.0 l/m2 in 1 Std. -
Ortszeit Stärke Spitze Richtung
km/h Bft. km/h Grad Sektor
Di, 16.08. 8:00 9 2 19 180° S
Di, 16.08. 2:00 7 2 13 200° S
Mo, 15.08. 20:00 17 3 30 200° S
Mo, 15.08. 14:00 15 3 31 240° SW
Mo, 15.08. 8:00 13 3 20 230° SW
Mo, 15.08. 2:00 11 2 19 230° SW
So, 14.08. 20:00 22 4 43 220° SW
So, 14.08. 14:00 20 4 39 260° W
Ortszeit Stärke Spitze Richtung
km/h Bft. km/h Grad Sektor
Di, 16.08. 9:00 9 2 17 140° SO
Di, 16.08. 8:00 9 2 19 180° S
Di, 16.08. 7:00 9 2 15 160° S
Di, 16.08. 6:00 9 2 13 170° S
Di, 16.08. 5:00 7 2 13 200° S
Di, 16.08. 4:00 9 2 20 150° SO
Di, 16.08. 3:00 6 1 11 170° S
Ortszeit Untergrenze Bedeckung Gattung
total tief tief mittel hoch
Di, 16.08. 8:00 - 8/8 - - - -
Di, 16.08. 2:00 - 8/8 - - - -
Mo, 15.08. 20:00 - 7/8 - - - -
Mo, 15.08. 14:00 - 6/8 - - - -
Mo, 15.08. 8:00 - 8/8 - - - -
Mo, 15.08. 2:00 - 8/8 - - - -
So, 14.08. 20:00 - 8/8 - - - -
So, 14.08. 14:00 - 8/8 - - - -
Ortszeit Bedeckungsgrad in Achtel und Wolkenuntergrenze
Di, 16.08. 9:00 7
Di, 16.08. 8:00 8
Di, 16.08. 7:00 8
Di, 16.08. 6:00 8
Di, 16.08. 5:00 8
Di, 16.08. 4:00 8
Di, 16.08. 3:00 8
Ortszeit Luftdruck NN (hPa) Tendenz (hPa in 3 Std.)
Di, 16.08. 8:00 1007 + 0,1
Di, 16.08. 2:00 1008 + 0,1
Mo, 15.08. 20:00 1008 - 0,3
Mo, 15.08. 14:00 1008 + 0,1
Mo, 15.08. 8:00 1007 - 0,3
Mo, 15.08. 2:00 1008 - 0,1
So, 14.08. 20:00 1008 - 0,9
So, 14.08. 14:00 1009 + 0,5
Ortszeit Luftdruck NN (hPa) Tendenz (hPa in 3 Std.)
Di, 16.08. 9:00 1007 0,0
Di, 16.08. 8:00 1007 + 0,1
Di, 16.08. 7:00 1007 - 0,1
Di, 16.08. 6:00 1007 - 0,8
Di, 16.08. 5:00 1007 - 0,8
Di, 16.08. 4:00 1007 - 1,5
Di, 16.08. 3:00 1008 - 0,5
Ortszeit Schneehöhe (cm)
Di, 16.08. 8:00 -
Di, 16.08. 2:00 -
Mo, 15.08. 20:00 -
Mo, 15.08. 14:00 -
Mo, 15.08. 8:00 -
Mo, 15.08. 2:00 -
So, 14.08. 20:00 -
So, 14.08. 14:00 -
Ortszeit Schneehöhe (cm)
Di, 16.08. 9:00 -
Di, 16.08. 8:00 -
Di, 16.08. 7:00 -
Di, 16.08. 6:00 -
Di, 16.08. 5:00 -
Di, 16.08. 4:00 -
Di, 16.08. 3:00 -
Link zu dieser Seite / Seite empfehlen

Das Wetter in ...